Cumshewa Island, British Columbia

11:33 PM PDT on October 19, 2017 (GMT -0700)
Cumshewa Island

Weather History for CWZL - November, 2013

Change the Weather History Date:

Friday, November 8, 2013

  Actual Average (CYZP) Record (CYZP)
Temperature  
Mean Temperature 45 °F -  
Max Temperature 48 °F 46 °F 54 °F (2016)
Min Temperature 42 °F 39 °F 35 °F (2010)
Degree Days  
Heating Degree Days 20    
Moisture  
Dew Point 40 °F    
Average Humidity 81    
Maximum Humidity 91    
Minimum Humidity 59    
Precipitation  
Precipitation 0.00 in - - ()
Sea Level Pressure  
Sea Level Pressure 29.86 in    
Wind  
Wind Speed 6 mph ()    
Max Wind Speed 23 mph    
Max Gust Speed -    
Averages and records for this station are not official NWS values.
T = Trace of Precipitation, MM = Missing Value Source: Averaged Metar Reports

Daily Weather History Graph

Daily Weather History Graph

Search for Another Location

Airport or City:

Trip Planner

Search our weather history database for the weather conditions in past years. The results will help you decide how hot, cold, wet, or windy it might be!

Date:

Astronomy

Nov. 08, 2013 Rise Set
Actual Time 7:58 AM PST 5:01 PM PST
Civil Twilight 7:20 AM PST 5:39 PM PST
Nautical Twilight 6:38 AM PST 6:20 PM PST
Astronomical Twilight 5:58 AM PST 7:00 PM PST
Moon 12:58 PM PST (11/8) 10:34 PM PST (11/8)
Length of Visible Light 10h 18m
Length of Day
9h 03m
Waxing Crescent, 34% of the Moon is Illuminated
Nov 8
Waxing Crescent
Nov 9
First Quarter
Nov 17
Full
Nov 25
Last Quarter
Dec 2
New

Hourly Weather History & Observations

Time (PST) Temp. Windchill Dew Point Humidity Pressure Visibility Wind Dir Wind Speed Gust Speed Precip Events Conditions
12:00 AM 45.7 °F 44.4 °F 40.8 °F 83% 29.89 in - NW 3.5 mph - N/A   Unknown
1:00 AM 45.9 °F - 41.2 °F 84% 29.89 in - Calm Calm - N/A   Unknown
2:00 AM 45.9 °F - 39.9 °F 80% 29.88 in - Calm Calm - N/A   Unknown
3:00 AM 45.9 °F - 41.2 °F 84% 29.88 in - WNW 1.2 mph - N/A   Unknown
4:00 AM 47 °F - 42 °F 75% 29.88 in - SSW 3.5 mph - -  
4:00 AM 46.8 °F - 41.5 °F 82% 29.88 in - SSW 3.5 mph - N/A   Unknown
5:00 AM 46.9 °F - 40.5 °F 78% 29.86 in - South 12.7 mph - N/A   Unknown
6:00 AM 46.4 °F 39.5 °F 41.5 °F 83% 29.84 in - South 17.3 mph - N/A   Unknown
7:00 AM 46.9 °F - 42.8 °F 86% 29.81 in - SSE 18.4 mph - N/A   Unknown
8:00 AM 46.9 °F - 44.1 °F 90% 29.79 in - SSE 23.0 mph - N/A   Unknown
9:00 AM 47.3 °F - 44.8 °F 91% 29.80 in - SSE 19.6 mph - N/A   Unknown
10:00 AM 46 °F - 43 °F 85% 29.81 in - West 9.2 mph - -  
10:00 AM 45.7 °F 41.0 °F 43.0 °F 90% 29.81 in - West 9.2 mph - N/A   Unknown
11:00 AM 46.8 °F - 42.8 °F 86% 29.81 in - SW 5.8 mph - N/A   Unknown
12:00 PM 46.2 °F - 41.4 °F 83% 29.82 in - WNW 2.3 mph - N/A   Unknown
1:00 PM 47.7 °F - 38.8 °F 71% 29.83 in - West 5.8 mph - N/A   Unknown
2:00 PM 48.2 °F - 38.5 °F 69% 29.83 in - SSW 3.5 mph - N/A   Unknown
3:00 PM 48.0 °F - 36.9 °F 65% 29.84 in - WNW 3.5 mph - N/A   Unknown
4:00 PM 47 °F - 37 °F 59% 29.85 in - WNW 9.2 mph - -  
4:00 PM 46.8 °F - 37.2 °F 69% 29.85 in - WNW 9.2 mph - N/A   Unknown
5:00 PM 45.9 °F 42.9 °F 38.8 °F 76% 29.86 in - West 5.8 mph - N/A   Unknown
6:00 PM 44.6 °F 42.2 °F 38.5 °F 79% 29.88 in - West 4.6 mph - N/A   Unknown
7:00 PM 44.2 °F 42.7 °F 38.1 °F 79% 29.89 in - WSW 3.5 mph - N/A   Unknown
8:00 PM 43.5 °F 39.4 °F 39.6 °F 86% 29.91 in - West 6.9 mph - N/A   Unknown
9:00 PM 43.2 °F 38.4 °F 38.8 °F 85% 29.93 in - West 8.1 mph - N/A   Unknown
10:00 PM 42 °F - 39 °F 84% 29.94 in - West 5.8 mph - -  
10:00 PM 42.4 °F 38.8 °F 38.8 °F 87% 29.94 in - West 5.8 mph - N/A   Unknown
11:00 PM 42.3 °F 37.3 °F 39.4 °F 90% 29.95 in - West 8.1 mph - N/A   Unknown